This is the latest recevied weather packets stored in our database for station/object I2HLY-4. If no packets are shown the sender has not sent any weather packets the latest 10 day(s).
| Time | Temp. | Humidity | Pressure | Rain* | Wind** | Luminosity | Snow |
|---|---|---|---|---|---|---|---|
| 1777775546 | 9.44° C | 70% | 1021.5 hPa | 0 mm | - | - | - |
| 1777774649 | 9.44° C | 72% | 1021.5 hPa | 0 mm | - | - | - |
| 1777773732 | 9.44° C | 72% | 1021.7 hPa | 0 mm | - | - | - |
| 1777772833 | 10° C | 72% | 1021.8 hPa | 0 mm | - | - | - |
| 1777771936 | 10° C | 71% | 1021.9 hPa | 0 mm | - | - | - |
| 1777771036 | 10° C | 71% | 1021.9 hPa | 0 mm | - | - | - |
| 1777770133 | 10° C | 71% | 1022 hPa | 0 mm | - | - | - |
| 1777769236 | 9.44° C | 73% | 1022.3 hPa | 0 mm | - | - | - |
| 1777768346 | 9.44° C | 73% | 1022.6 hPa | 0 mm | - | - | - |
| 1777767448 | 9.44° C | 72% | 1022.7 hPa | 0 mm | - | - | - |
| 1777765649 | 10° C | 70% | 1023 hPa | 0 mm | - | - | - |
| 1777764747 | 9.44° C | 72% | 1023 hPa | 0 mm | - | - | - |
| 1777763847 | 10° C | 68% | 1023.3 hPa | 0 mm | - | - | - |
| 1777762942 | 10° C | 70% | 1023.4 hPa | 0 mm | - | - | - |
| 1777762043 | 10° C | 69% | 1023.3 hPa | 0 mm | - | - | - |
| 1777761147 | 10° C | 68% | 1023.4 hPa | 0 mm | - | - | - |
| 1777760247 | 9.44° C | 69% | 1023.4 hPa | 0 mm | - | - | - |
| 1777759331 | 10° C | 71% | 1023.5 hPa | 0 mm | - | - | - |
| 1777758433 | 10° C | 68% | 1023.5 hPa | 0 mm | - | - | - |
| 1777757549 | 10.56° C | 68% | 1023.4 hPa | 0 mm | - | - | - |
| 1777756633 | 10.56° C | 65% | 1023.4 hPa | 0 mm | - | - | - |
| 1777755743 | 10.56° C | 66% | 1023.5 hPa | 0 mm | - | - | - |
| 1777753941 | 10° C | 71% | 1023.7 hPa | 0 mm | - | - | - |
| 1777753036 | 10.56° C | 70% | 1023.8 hPa | 0 mm | - | - | - |
| 1777752139 | 10.56° C | 70% | 1023.7 hPa | 0 mm | - | - | - |
* Rain latest hour (hover to see other rain measurements)
** Current wind speed in m/s (hover to see current wind gust speed)